Location: Arguni
(42.1142°N, 44.6399°E)
Time: 00:33:56
(UTC+00:00)

Daily predictions for brighter satellites

Satellite Brightness Start Highest point End
(mag) Time Altitude Azimuth Time Altitude Azimuth Time Altitude Azimuth
Cosmos 1867 4.1 00:11:41 55° NE 00:11:42 55° NE 00:17:02 10° SE
NOSS 3-1 (A) 4.0 00:07:58 24° NW 00:13:06 88° ENE 00:22:08 10° SE
USA 281 3.8 00:15:08 10° NNE 00:20:24 43° NW 00:20:24 43° NW
GP-B 4.3 00:23:26 38° ESE 00:24:03 40° E 00:28:11 10° NNE
Sich 1 4.3 00:22:11 10° N 00:26:18 40° ENE 00:28:31 23° SE
ADEOS II 4.2 00:24:33 10° N 00:25:42 15° NNW 00:25:42 15° NNW
IRS-1D 3.5 00:28:16 10° NNE 00:33:14 79° N 00:33:14 79° N
Cosmos 2297 Rocket 3.5 00:31:19 18° SSE 00:34:49 37° ESE 00:39:57 10° NE
Envisat 3.3 00:31:17 10° NNE 00:36:20 65° E 00:37:28 50° SSE
BlueWalker 3 3.4 00:39:03 36° E 00:39:03 36° E 00:41:32 10° ESE
Cosmos 1125 Rocket 3.9 00:45:40 48° NNW 00:45:40 48° NNW 00:49:53 10° N
Cosmos 2237 Rocket 3.6 00:41:20 10° N 00:46:38 38° ENE 00:51:52 10° SE
METEOR-M 4.0 00:45:31 10° N 00:50:51 72° WNW 00:51:25 66° WSW
Lacrosse 5 rocket 3.3 00:56:20 18° N 00:56:20 18° N 00:58:26 10° NNE
Cosmos 1536 2.8 00:53:12 10° N 00:56:56 73° NE 00:56:56 73° NE
Cosmos 2322 3.7 01:00:59 52° WSW 01:00:59 52° WSW 01:06:18 10° S
SL-08 R/B 4.3 00:56:37 18° S 01:01:18 86° W 01:07:26 10° N
Nadezhda 1 Rocket 4.4 00:57:37 10° N 01:03:53 63° E 01:09:58 10° SSE
YAOGAN 11 4.0 01:00:19 10° S 01:04:48 74° WSW 01:09:16 10° NNW
NOSS 0 Rocket 3.9 00:59:51 10° NNW 01:06:09 86° ENE 01:12:23 10° SSE
Okean 1 3.6 01:05:19 29° SSE 01:07:08 63° E 01:10:57 10° NNE
COSMOS 2428 2.7 01:03:48 10° NNW 01:09:22 57° WSW 01:14:56 10° S
USA 215 3.3 01:03:01 10° SE 01:09:34 82° NE 01:16:09 10° NW
COBE Rocket 3.8 01:05:21 10° N 01:10:14 83° WNW 01:13:28 22° SSW
PAYLOAD A 4.0 01:06:15 10° N 01:11:04 54° WNW 01:12:07 45° WSW
CBERS-1 3.9 01:09:07 10° NNE 01:14:15 82° WNW 01:18:07 18° SSW
Cosmos 1726 4.2 01:13:59 10° NNE 01:16:57 26° ENE 01:19:54 10° SE
H-2A R/B 3.9 01:13:57 10° NNE 01:17:14 38° E 01:20:29 10° SSE
CZ-2C R/B 2.7 01:13:02 10° N 01:17:26 40° WNW 01:17:30 40° WNW
ALOS 4.2 01:16:40 10° NNW 01:17:58 15° NW 01:17:58 15° NW
Cosmos 1151 Rocket 2.9 01:17:55 31° SSW 01:19:55 70° W 01:24:18 10° N
Cosmos 1386 Rocket 4.4 01:13:56 10° S 01:20:15 87° W 01:26:30 10° N
ERS-2 4.5 01:18:25 10° NE 01:20:53 21° E 01:23:19 10° SSE
Cosmos 2227 Rocket 3.0 01:16:03 10° S 01:21:31 51° ESE 01:26:59 10° NE
ATLAS 3B R/B 4.4 01:27:32 17° SW 01:27:32 17° SW 01:29:44 10° SSW
ARIANE 5 R/B 3.2 01:22:35 10° NNE 01:27:30 53° E 01:32:20 10° S
Meteor 2-20 4.4 01:21:23 10° N 01:27:34 82° W 01:33:42 10° S
Meteor 1-27 Rocket 3.6 01:22:08 10° SSW 01:27:42 68° WNW 01:33:26 10° N
Cosmos 44 Rocket 3.3 01:26:28 31° SW 01:28:53 68° NW 01:34:02 10° NNE
Cosmos 1328 Rocket 3.8 01:26:16 10° S 01:30:39 71° E 01:35:01 10° NNE
Cosmos 1666 Rocket 3.5 01:27:53 10° N 01:32:17 83° E 01:36:36 10° S
DMSP B5D2-2 4.0 01:27:11 10° S 01:32:26 81° WSW 01:37:44 10° NNW
Cosmos 1709 Rocket 4.3 01:29:40 10° S 01:36:01 74° E 01:42:22 10° N
Meteor 1-19 Rocket 4.1 01:31:48 10° SSW 01:37:22 73° W 01:42:51 10° N
IRS-P3 4.4 01:39:09 10° NNE 01:44:29 71° ESE 01:49:48 10° S
Cosmos 1269 Rocket 4.0 01:39:28 10° NNW 01:44:47 89° WSW 01:50:03 10° SSE
CZ-2D R/B 4.4 01:41:12 10° NNE 01:45:29 54° E 01:49:45 10° S
Helios 1A 2.8 01:41:48 10° S 01:45:53 76° WSW 01:49:59 10° NNW
USA 229 DEB 4.1 01:40:23 10° NW 01:47:42 53° WSW 01:55:29 10° S
USA 229 4.1 01:40:28 10° NW 01:47:47 54° WSW 01:55:34 10° SSE
Meteor 1-11 Rocket 4.3 01:42:37 10° NNW 01:48:03 39° W 01:53:30 10° SSW
Meteor 2-4 Rocket 4.2 01:42:21 10° S 01:48:13 68° E 01:54:00 10° NNE
Cosmos 1745 Rocket 4.1 01:43:54 10° SSW 01:50:07 58° W 01:56:24 10° N
Cosmos 614 Rocket 3.9 01:46:11 10° NNW 01:51:17 65° WSW 01:56:24 10° S
Cosmos 1980 3.7 01:47:04 10° NNW 01:52:40 62° WSW 01:58:13 10° S
Cosmos 1805 4.0 01:57:09 10° N 02:00:52 54° E 02:04:34 10° SSE
Cosmos 1633 Rocket 3.1 01:56:39 10° NNW 02:00:59 58° W 02:05:17 10° S
Meteor 2-9 Rocket 4.5 01:55:39 10° NNW 02:01:13 47° W 02:06:40 10° SSW
GP-B 4.5 02:00:52 17° W 02:01:27 18° W 02:04:27 10° NW
H-2A R/B 2.3 01:57:39 10° NNE 02:03:08 78° ESE 02:08:29 10° S
Sich 1 4.5 02:00:38 10° NW 02:03:28 17° W 02:04:47 15° WSW
ATLAS CENTAUR R/B 3.0 02:02:53 10° NNW 02:06:03 29° NE 02:09:14 10° ESE
Cosmos 1484 Rocket 3.7 02:03:48 10° NNW 02:06:50 25° WNW 02:09:41 11° SW
BlueWalker 3 3.4 02:13:44 13° W 02:15:53 20° SW 02:18:46 10° S
PSLV R/B 4.3 02:14:24 10° NNE 02:18:28 54° E 02:22:31 10° S
Cosmos 2297 Rocket 2.9 02:13:47 10° WSW 02:18:50 33° WNW 02:23:57 10° N
Cosmos 2344 3.5 02:12:11 10° SW 02:19:53 76° NW 02:27:19 10° NE
SKYMED 2 3.6 02:16:13 10° SSE 02:20:33 86° W 02:24:55 10° NNW
Cosmos 2219 3.2 02:23:08 10° SSW 02:28:48 72° WNW 02:34:27 10° NNE
Cosmos 1939 Rocket 3.1 02:25:28 10° N 02:29:11 46° WNW 02:32:56 10° SSW
Cosmos 2237 Rocket 2.9 02:25:35 10° NW 02:30:34 32° WSW 02:35:29 10° SSW
Cosmos 2181 Rocket 4.0 02:27:02 10° N 02:33:13 79° W 02:39:19 10° S
Meteor 2-10 4.5 02:31:27 10° NNW 02:36:16 38° W 02:40:57 10° SSW
